Dewpoint
1 3 4 3 3 3 2 2 2 2 2 2 2 1 -1 -2 -2 -3 -4 -2 1 5 8 10 13 15 16 17 19 19 21 23 24 26 27 27 29 30 30 30 29 27 26 27 27 27 24 17 21 20 22 24 24 22 23 28 23 24 24 25 26 27 31
1 4 4 3 3 2 2 2 2 1 2 2 1 -0 -1 -2 -2 -3 -4 -3 -0 4 8 12 14 15 16 17 18 19 18 19 19 20 21 23 26 28 29 30 29 28 27 26 27 27 25 20 18 22 14 18 17 17 20 23 22 23 22 22 22 22 24
1 4 3 3 3 2 2 2 1 1 1 1 -0 -1 -1 -2 -2 -3 -3 -3 -0 4 8 12 14 15 16 15 15 16 15 16 16 17 18 18 19 21 25 28 30 29 27 27 27 28 27 24 19 21 19 15 15 15 16 16 17 20 23 23 21 22 24
2 3 3 2 3 2 1 1 0 -0 0 0 -0 -1 -1 -1 -2 -2 -2 -2 0 4 8 11 13 15 14 14 13 14 14 14 14 15 16 16 16 18 19 21 24 26 28 27 26 25 27 23 21 19 18 16 16 17 16 15 15 15 15 16 20 21 20
3 3 3 3 2 1 1 0 -0 -1 -1 -0 -0 -1 -1 -1 -1 -2 -2 -1 1 6 9 11 14 14 13 13 12 12 13 14 13 14 14 15 15 15 17 18 20 22 25 25 25 25 22 21 21 20 22 22 22 22 21 22 22 22 21 18 16 16 17
4 4 3 2 2 1 0 0 -1 -1 -1 -1 -0 -0 -1 -1 -1 -2 -2 -1 2 5 8 12 14 12 12 12 12 12 13 13 13 13 13 14 14 14 16 16 18 19 20 23 24 24 23 23 22 24 24 24 24 24 23 23 23 23 23 24 24 23 20
2 4 3 2 1 0 -0 -1 -1 -1 -1 -1 -1 -2 -2 -2 -2 -2 -1 0 3 7 10 13 12 11 11 11 12 13 13 13 13 13 11 12 12 14 14 14 15 16 18 19 21 22 23 22 22 23 22 23 24 22 21 21 22 21 22 21 21 21 22
2 1 2 1 0 -0 -0 -1 -1 -1 -1 -1 -2 -2 -3 -2 -2 -1 0 2 5 10 13 11 10 10 10 11 12 13 12 11 10 10 9 11 11 12 12 13 13 13 14 16 18 19 19 20 20 18 18 18 18 19 18 17 20 19 19 19 20 19 18
1 0 -1 -1 -1 -1 -2 -4 -3 -4 -3 -3 -3 -3 -2 -1 1 2 3 6 10 12 10 9 9 9 9 11 12 12 12 11 10 8 8 10 11 11 11 11 11 11 12 13 13 15 15 14 13 13 13 13 13 13 13 15 17 17 17 18 18 16 14
0 -0 1 0 -1 -3 -5 -6 -5 -0 3 5 4 4 5 6 5 4 6 10 11 7 6 5 5 6 9 9 9 10 10 9 9 10 9 9 11 10 8 8 8 8 9 10 9 10 10 10 10 10 10 10 11 11 11 12 12 12 13 15 17 16 14
3 2 -0 -3 -5 -7 -8 -6 -6 2 9 12 13 11 9 8 7 8 10 10 8 5 4 3 3 3 5 6 8 6 9 7 7 8 8 8 10 11 9 7 5 6 7 8 7 8 7 7 7 8 9 9 9 10 9 9 10 10 11 12 13 12 17
0 -2 -5 -6 -8 -9 -7 -8 -1 8 10 12 13 11 8 8 9 10 9 7 7 5 2 0 -1 -2 -2 -1 3 1 -1 3 5 5 5 5 5 7 10 11 8 5 4 5 5 5 5 4 6 6 6 6 7 8 7 8 8 8 8 9 9 9 8
-3 -5 -7 -9 -8 -8 -8 -9 -0 8 10 11 12 13 11 8 8 7 4 1 -1 -3 -5 -5 -6 -6 -6 -4 4 3 -5 -8 -6 0 0 -0 -0 1 4 9 11 9 6 4 3 3 4 5 5 3 2 1 3 6 5 5 5 6 6 6 5 7 4
-6 -6 -9 -11 -10 -9 -11 -9 -4 8 10 11 12 12 11 5 4 4 2 0 -2 -4 -5 -6 -6 -7 -7 -6 -3 1 -3 -9 -11 -10 -10 -10 -10 -8 -4 1 5 6 6 6 4 3 3 4 2 1 -1 -2 -1 -1 1 2 1 2 2 3 3 4 4
-9 -10 -9 -10 -12 -13 -10 -9 5 9 11 11 11 12 12 3 2 1 -2 -3 -5 -6 -7 -6 -6 -6 -6 -6 -4 -0 -2 -7 -10 -10 -11 -12 -12 -11 -10 -7 -3 4 4 5 4 4 5 5 3 2 1 -2 -4 -6 -5 -1 -0 -1 -2 -2 -2 -4 2
-10 -10 -10 -9 -12 -12 -10 -9 7 9 10 10 10 10 3 -0 -3 -5 -7 -9 -10 -11 -9 -6 -5 -6 -7 -5 -3 6 3 -2 -8 -12 -13 -13 -13 -13 -13 -12 -5 10 10 7 6 5 4 5 7 9 5 5 1 -3 -8 -8 -10 -10 -11 -11 -10 -10 -9
-9 -9 -10 -10 -10 -10 -9 -9 1 8 8 9 10 8 -0 -3 -5 -7 -8 -13 -13 -12 -10 -8 -4 -3 -4 -3 -2 6 7 5 -5 -14 -14 -14 -15 -15 -16 -14 -13 -1 8 10 10 10 10 9 9 10 10 10 9 1 -7 -16 -15 -17 -15 -13 -16 -14 -13
-10 -10 -10 -10 -10 -10 -9 -7 -3 5 7 8 10 8 -1 -4 -7 -11 -12 -12 -13 -12 -10 -6 -0 2 -1 -1 2 7 8 5 -7 -14 -13 -14 -17 -20 -20 -19 -18 -17 -14 3 4 5 5 4 3 2 2 5 5 3 -5 -17 -19 -18 -17 -15 -16 -18 -13
-10 -10 -11 -11 -11 -4 -5 -7 -4 2 8 8 9 4 -4 -7 -12 -14 -15 -14 -10 -8 -7 -6 -3 0 2 3 6 8 7 5 -8 -12 -13 -16 -20 -22 -23 -20 -20 -20 -20 -20 -20 -20 -19 -20 -18 -19 -19 -18 -15 -13 -14 -18 -18 -17 -18 -16 -17 -17 -18
-12 -12 -11 -11 -11 -10 -9 -8 -7 -4 7 8 8 10 -6 -9 -10 -12 -13 -11 -10 -11 -9 -8 -6 -4 1 6 7 6 4 7 5 -11 -15 -19 -22 -22 -21 -18 -19 -18 -20 -20 -21 -22 -21 -20 -20 -21 -21 -22 -21 -20 -16 -19 -18 -18 -18 -18 -20 -18 -19
-14 -14 -12 -11 -8 -8 -7 -5 -6 -4 6 9 9 8 0 -9 -10 -11 -12 -14 -12 -13 -10 -10 -9 -7 -1 4 3 3 7 6 6 -2 -14 -17 -20 -19 -14 -17 -21 -19 -19 -22 -22 -22 -23 -23 -22 -22 -23 -23 -22 -22 -21 -21 -20 -20 -19 -19 -21 -23 -23
-13 -14 -12 -9 -5 -4 -6 -4 1 -2 2 8 9 8 3 -10 -13 -11 -13 -14 -16 -10 -11 -12 -10 -9 -2 3 1 2 5 6 5 3 -3 -3 2 2 -5 -19 -19 -23 -23 -23 -24 -24 -25 -25 -24 -24 -24 -24 -24 -23 -22 -23 -23 -22 -21 -20 -19 -20 -24
-15 -15 -13 -10 -10 -9 -8 -7 -6 0 0 4 6 7 6 5 -2 1 -13 -14 -15 -14 -11 -10 -7 -4 2 1 5 5 6 6 5 -2 -2 2 0 -3 -15 -18 -21 -21 -23 -24 -24 -25 -26 -26 -26 -26 -25 -25 -25 -24 -24 -24 -24 -24 -24 -22 -21 -17 -17
-15 -15 -14 -11 -11 -11 -10 -10 -10 -3 -0 0 3 3 5 4 1 -3 -13 -13 -16 -14 -10 -6 -4 0 3 6 6 6 5 3 -5 -7 -0 -3 -14 -16 -19 -22 -22 -23 -24 -24 -25 -27 -27 -26 -26 -26 -26 -25 -25 -24 -25 -25 -26 -26 -25 -25 -25 -22 -22
-14 -14 -12 -11 -12 -13 -12 -11 -11 -12 -6 -2 -0 2 2 -0 -3 -5 -6 -11 -11 -7 -5 -3 -1 -2 -1 1 2 -1 -7 -14 -14 -12 -14 -16 -17 -20 -24 -24 -25 -25 -26 -27 -27 -27 -27 -27 -27 -26 -24 -24 -24 -25 -26 -28 -29 -28 -27 -27 -27 -27 -24
-13 -12 -11 -13 -13 -13 -14 -14 -15 -15 -15 -8 -5 -4 -3 -3 -7 -6 -6 -7 -9 -10 -10 -10 -11 -14 -13 -14 -16 -19 -20 -20 -20 -18 -18 -18 -20 -25 -25 -26 -26 -27 -27 -28 -28 -28 -29 -29 -29 -30 -29 -27 -27 -28 -28 -29 -30 -31 -28 -29 -30 -29 -29
-12 -12 -13 -13 -15 -15 -15 -17 -19 -20 -19 -19 -17 -18 -14 -12 -12 -10 -12 -18 -18 -15 -16 -16 -16 -16 -16 -17 -18 -19 -20 -22 -23 -25 -26 -27 -26 -25 -25 -26 -28 -27 -28 -28 -28 -28 -30 -30 -31 -31 -29 -30 -30 -30 -30 -29 -30 -35 -33 -32 -33 -35 -32
-15 -15 -15 -17 -19 -18 -18 -18 -21 -21 -19 -23 -22 -23 -24 -22 -22 -25 -25 -23 -24 -23 -22 -23 -22 -24 -27 -27 -28 -28 -29 -28 -28 -27 -27 -29 -29 -28 -25 -22 -21 -23 -29 -32 -33 -33 -33 -32 -34 -33 -33 -33 -33 -32 -32 -32 -31 -33 -34 -33 -36 -39 -35
-18 -16 -19 -18 -19 -20 -20 -19 -19 -16 -9 -15 -13 -19 -22 -24 -26 -27 -27 -20 -21 -24 -26 -27 -28 -28 -29 -30 -29 -31 -31 -32 -29 -29 -29 -31 -31 -31 -30 -30 -32 -31 -31 -32 -32 -32 -33 -34 -35 -34 -34 -34 -33 -32 -32 -33 -34 -35 -35 -36 -38 -37 -36
-10 -12 -14 -19 -23 -22 -21 -20 -18 -7 -5 -2 -4 -5 -11 -14 -11 -18 -18 -18 -21 -24 -31 -32 -32 -33 -32 -33 -33 -33 -33 -33 -35 -33 -31 -32 -25 -30 -32 -32 -33 -33 -32 -30 -32 -33 -33 -33 -34 -35 -35 -35 -34 -35 -36 -32 -28 -37 -37 -37 -38 -38 -38
3 2 -6 -12 -22 -19 -7 -5 -6 -6 -1 2 3 -0 -4 -8 -13 -15 -16 -19 -26 -34 -36 -34 -33 -35 -34 -35 -36 -34 -35 -34 -34 -34 -35 -35 -34 -34 -32 -31 -33 -33 -31 -31 -33 -33 -33 -33 -35 -35 -34 -35 -33 -34 -37 -37 -35 -37 -38 -38 -38 -38 -37
0 -2 -6 -9 -11 -14 -22 -12 -10 -5 1 1 2 1 -1 -3 -6 -7 -14 -19 -20 -34 -37 -37 -35 -37 -37 -36 -35 -34 -33 -36 -36 -36 -37 -37 -35 -35 -33 -34 -34 -31 -37 -34 -35 -35 -33 -34 -35 -35 -33 -34 -34 -33 -37 -37 -37 -38 -38 -38 -39 -37 -34
-3 -3 -2 -3 -4 -3 1 -4 -4 -2 -1 -1 2 -1 -5 -3 -5 -12 -17 -20 -32 -36 -38 -39 -38 -37 -37 -37 -35 -37 -37 -37 -37 -38 -38 -39 -37 -36 -35 -35 -36 -34 -33 -32 -34 -36 -36 -35 -35 -34 -34 -34 -36 -37 -38 -37 -38 -39 -39 -39 -39 -36 -35
-7 -8 -10 -10 -8 -7 -6 -6 -5 -6 -6 -3 -2 -3 -8 -12 -15 -12 -19 -25 -36 -37 -37 -40 -40 -38 -38 -40 -38 -39 -35 -35 -36 -36 -37 -35 -35 -37 -40 -42 -41 -41 -35 -33 -35 -38 -35 -34 -37 -36 -39 -39 -39 -39 -38 -39 -37 -39 -38 -39 -39 -38 -36
-27 -17 -12 -18 -16 -12 -12 -12 -12 -11 -11 -12 -13 -11 -7 -7 -27 -34 -36 -36 -40 -38 -38 -36 -37 -38 -37 -40 -38 -38 -36 -38 -40 -38 -36 -37 -38 -38 -41 -40 -38 -36 -34 -36 -40 -41 -38 -33 -36 -39 -35 -37 -38 -40 -39 -38 -38 -39 -38 -38 -38 -37 -36
-31 -37 -22 -14 -12 -15 -14 -14 -14 -13 -12 -10 -9 -9 -13 -28 -40 -38 -38 -36 -38 -39 -38 -37 -38 -39 -38 -42 -40 -39 -39 -42 -41 -40 -41 -45 -41 -36 -38 -37 -38 -36 -35 -34 -39 -35 -34 -37 -42 -39 -38 -42 -39 -38 -38 -39 -39 -39 -37 -35 -36 -36 -36